EW9741 Weather Reports


time (UTC)temp
C
wind
direction
speed
KPH
gust
KPH
rain 1hr
cm
rain 24hr
cm
rain mn
cm
humidity
%
barometer
mb
20260903011508 29 218 0.0 0.0 0.00 0.00 0.00 65 1015.4
20260903010007 29 159 0.0 0.0 0.00 0.00 0.00 66 1015.2
20260903004513 30 227 0.0 0.0 0.00 0.00 0.00 65 1015.1
20260903003002 30 236 0.0 0.0 0.00 0.00 0.00 63 1015.0
20260903001610 30 229 0.0 0.0 0.00 0.00 0.00 62 1015.0
20260903000059 31 229 0.0 0.0 0.00 0.00 0.00 60 1014.9
20260902234556 32 229 0.0 0.0 0.00 0.00 0.00 55 1015.0
20260902233052 32 290 0.0 0.0 0.00 0.00 0.00 55 1014.9
20260902231549 33 281 0.0 0.0 0.00 0.00 0.00 54 1015.0
20260902230048 33 297 0.0 0.0 0.00 0.00 0.00 52 1015.1
20260902224546 33 281 0.0 0.0 0.00 0.00 0.00 51 1015.1
20260902223045 33 270 0.0 3.2 0.00 0.00 0.00 51 1015.1
20260902221543 34 301 0.0 0.0 0.00 0.00 0.00 50 1015.2
20260902220048 34 115 0.0 0.0 0.00 0.00 0.00 49 1015.1
20260902214543 34 238 0.0 9.7 0.00 0.00 0.00 48 1015.2
20260902213037 34 314 0.0 0.0 0.00 0.00 0.00 49 1015.2
20260902211533 34 340 0.0 0.0 0.00 0.00 0.00 48 1015.2
20260902210041 34 294 0.0 3.2 0.00 0.00 0.00 50 1015.4
20260902204519 34 281 0.0 0.0 0.00 0.00 0.00 46 1015.4
20260902203014 34 255 0.0 8.0 0.00 0.00 0.00 48 1015.6
20260902201511 34 289 0.0 0.0 0.00 0.00 0.00 48 1015.6
20260902200010 33 234 0.0 9.7 0.00 0.00 0.00 48 1015.7
20260902194505 34 297 0.0 6.4 0.00 0.00 0.00 49 1015.9
20260902193100 33 288 0.0 0.0 0.00 0.00 0.00 48 1016.1
20260902191602 33 309 0.0 0.0 0.00 0.00 0.00 50 1016.2
20260902190052 33 313 0.0 0.0 0.00 0.00 0.00 50 1016.4
20260902184547 33 293 0.0 9.7 0.00 0.00 0.00 51 1016.5
20260902183047 33 273 0.0 12.9 0.00 0.00 0.00 52 1016.7
20260902181540 33 269 0.0 0.0 0.00 0.00 0.00 51 1016.7
20260902180046 32 316 0.0 0.0 0.00 0.00 0.00 52 1016.8
20260902174532 33 242 0.0 9.7 0.00 0.00 0.00 51 1016.9
20260902173028 33 279 0.0 1.6 0.00 0.00 0.00 53 1017.1
20260902171525 32 281 0.0 0.0 0.00 0.00 0.00 53 1017.1
20260902170020 32 268 0.0 12.9 0.00 0.00 0.00 52 1017.2
20260902164515 33 136 0.0 0.0 0.00 0.00 0.00 52 1017.4
20260902163015 33 172 0.0 0.0 0.00 0.00 0.00 53 1017.5
20260902161510 32 266 0.0 0.0 0.00 0.00 0.00 56 1017.5
20260902160008 32 195 0.0 1.6 0.00 0.00 0.00 57 1017.6
20260902154601 32 288 0.0 0.0 0.00 0.00 0.00 60 1017.8
20260902154500 31 303 0.0 0.0 0.00 0.00 0.00 59 1017.8
20260902153056 31 224 0.0 0.0 0.00 0.00 0.00 62 1017.8
20260902151558 31 289 0.0 1.6 0.00 0.00 0.00 63 1017.9
20260902144558 30 289 0.0 0.0 0.00 0.00 0.00 66 1017.9
20260902143041 30 278 0.0 0.0 0.00 0.00 0.00 70 1017.8
20260902141539 28 270 0.0 0.0 0.00 0.00 0.00 71 1017.8
20260902134534 27 297 0.0 0.0 0.00 0.00 0.00 74 1017.8
20260902133027 27 275 0.0 0.0 0.00 0.00 0.00 73 1017.8
20260902131527 27 255 0.0 0.0 0.00 0.00 0.00 73 1017.8
20260902124526 26 134 0.0 0.0 0.00 0.00 0.00 79 1017.7
20260902123018 25 218 0.0 0.0 0.00 0.00 0.00 81 1017.6
20260902121513 25 230 0.0 0.0 0.00 0.00 0.00 82 1017.5
20260902114506 -17 0.0 0.0 0.00 0.00 0.00 1017.3
20260902113002 -17 0.0 0.0 0.00 0.00 0.00 1017.2
20260902111558 -17 0.0 0.0 0.00 0.00 0.00 1017.0
20260902104552 -17 0.0 0.0 0.00 0.00 0.00 1017.0
20260902103047 -67 167 0.0 0.0 0.00 0.00 0.00 86 1017.0
20260902101546 23 160 0.0 0.0 0.00 0.00 0.00 86 1016.9
20260902094546 23 148 0.0 0.0 0.00 0.00 0.00 86 1016.9
20260902093045 23 206 0.0 0.0 0.00 0.00 0.00 87 1016.9
20260902091552 23 160 0.0 0.0 0.00 0.00 0.00 87 1016.9
20260902084542 23 153 0.0 0.0 0.00 0.00 0.00 87 1016.5
20260902083042 23 152 0.0 0.0 0.00 0.00 0.00 87 1016.3
20260902081540 23 205 0.0 0.0 0.00 0.00 0.00 86 1016.3
20260902074537 24 216 0.0 0.0 0.00 0.00 0.00 84 1016.2
20260902073037 24 216 0.0 0.0 0.00 0.00 0.00 83 1016.2
20260902071534 25 216 0.0 0.0 0.00 0.00 0.00 81 1016.1
20260902064531 25 79 0.0 0.0 0.00 0.00 0.00 80 1016.1
20260902063036 25 227 0.0 0.0 0.00 0.00 0.00 80 1016.1
20260902061544 25 199 0.0 0.0 0.00 0.00 0.00 81 1016.1
20260902054534 25 216 0.0 0.0 0.00 0.00 0.00 80 1016.3
20260902053029 25 216 0.0 0.0 0.00 0.00 0.00 80 1016.2
20260902051528 25 216 0.0 0.0 0.00 0.00 0.00 79 1016.4
20260902044526 26 216 0.0 0.0 0.00 0.00 0.00 77 1016.2
20260902043032 26 224 0.0 0.0 0.00 0.00 0.00 77 1016.2
20260902041524 26 224 0.0 0.0 0.00 0.00 0.00 77 1016.3
20260902034521 26 191 0.0 0.0 0.00 0.00 0.00 76 1016.3
20260902033042 26 191 0.0 0.0 0.00 0.00 0.00 75 1016.3
20260902031517 27 159 0.0 0.0 0.00 0.00 0.00 74 1016.3
20260902024518 27 195 0.0 0.0 0.00 0.00 0.00 73 1016.3
20260902023014 27 165 0.0 0.0 0.00 0.00 0.00 72 1016.3
20260902021523 27 205 0.0 0.0 0.00 0.00 0.00 72 1016.3
20260902014510 27 186 0.0 0.0 0.00 0.00 0.00 70 1016.2
20260902013009 28 186 0.0 0.0 0.00 0.00 0.00 69 1016.2